Showing default

QIANFAN-160, 69119

Orbit data source: Space-Track

QIANFAN-160, 69119 is a Chinese payload satellite in LEO that was launched on Sun, 17 May 2026 UTC via a CHANG ZHENG 8 launch vehicle from the Wenchang Satellite Launch Center (WSC). Payload-class satellites include a variety of spacecraft equipped with specific instruments for various scientific and technological missions. These include communications satellites like Starlink; space stations such as the ISS; scientific satellites like the Hubble; Earth observation satellites from companies like Planet Labs, Umbra, and HawkEye 360; GPS; miniature CubeSats for education and research; and military/defense satellites.

Loading next visibility...
Identifier
69119, 2026-108R
Orbit
LEO
Country
Flag of CNCN / PRC
Related business
Manufacturer
SECM
Mission
Operational spacecraft
Bus & Motor
QIANFAN, Unknown motor
Mass
267 kg wet, ~267 kg dry
Launch date (UTC)
2026-05-17 (1 month ago)
Launch vehicle
CHANG ZHENG 8
Launch site
Wenchang Satellite Launch Center (WSC)
Object type
Payload
Rocket body
Debris
Shape & HBR
Unknown shape, 14.5 m
Radar Cross Section
Large (>1 m²)

Expand to show TLE details & history
Last TLE update: 9 hours ago

TLE from 9 hours ago
0 QIANFAN-160
1 69119U 26108R   26171.47410890 -.00000045  00000-0 -37597-4 0  9999
2 69119  89.0109  21.8400 0016851  97.5292 262.7804 14.03743498  4810
Epoch: 2026-06-20T11:22Z
TLE epoch observation values (Epoch: 2026-06-20T11:22:43.008Z)
Latitude
-0.00005°
Longitude
-57.52742°
Altitude
885.449 km
Speed
7.409 km/s
True Right ascension
01h 27m 21s
True Declination
0° 00' 00"
Sunlit
Object was in daylight at epoch
Visualization orbit readout
Latitude
Unknown
Longitude
Unknown
Altitude
Unknown
Speed
Unknown
Apparent Right ascension
Unknown
Apparent Declination
Unknown
Sunlit
N/A
Visualization observer readout
Local Sidereal Time
07:13:38
Azimuth
Unknown
Elevation
Unknown
Doppler factor
Unknown
Orbital elements
Apogee altitude
890.062 km
Perigee altitude
865.608 km
Semi-major axis
7,255.972 km
Eccentricity
0.00169
Inclination
89.0109°
RAAN
21.84°
Arg. of periapsis
97.5292°
True anomaly
262.58888°
Mean anomaly
262.7804°
Eccentric anomaly
262.68464°
Mean motion
3.51156 °/min
Orbital period
102.52 mins
BSTAR
-0.000037597
Loading maneuver chart data...
Computing Atmospheric mass density...
Loading historical data...
Loading historical data...
Loading historical data...
Loading historical data...
Loading historical data...
Loading historical data...
Loading historical data...

Documentation

Showing up to 5 results
|